Location: Thouarc�
(47.2667°N, 0.5000°W)
Time: 03:34:40
(UTC+02:00)

ISS - Visible Passes

Search period start: 14 April 2024 00:00
Search period end: 24 April 2024 00:00
Orbit: 413 x 419 km, 51.6° (Epoch: 13 April)

Date Brightness Start Highest point End Pass type
(mag) Time Alt. Az. Time Alt. Az. Time Alt. Az.
21 Apr -1.7 06:19:49 10° S 06:22:25 21° SE 06:25:01 10° E visible
22 Apr -1.2 05:32:09 10° SSE 05:33:52 13° SE 05:35:36 10° ESE visible
23 Apr -3.1 06:18:09 10° SW 06:21:22 47° SSE 06:24:36 10° ENE visible
